Wind_Speed
43 43 41 41 41 40 39 38 38 37 35 35 34 34 33 33 32 32 31 31 30 30 30 30 29 29 29 29 29 29 28 28 28 28 28 29 29 29 28 28 27 26 26
45 45 44 43 43 42 41 40 40 39 38 37 36 36 36 36 35 34 33 32 32 32 32 31 31 31 31 31 31 31 31 30 30 30 30 30 31 30 30 30 29 27 27
48 47 46 45 44 44 43 43 42 41 40 40 39 38 38 38 37 36 35 35 34 34 34 33 33 33 33 33 33 33 33 33 32 32 32 32 32 32 31 31 29 28 28
49 49 48 47 46 46 45 45 44 43 42 42 41 40 40 40 40 39 38 37 37 36 36 36 35 35 35 35 35 35 35 34 34 34 34 34 34 34 33 31 30 30 29
51 51 50 49 49 49 48 47 46 46 45 44 43 42 41 41 41 40 40 40 39 38 38 38 37 36 36 36 36 36 36 35 35 35 35 35 35 34 34 33 32 31 31
52 53 53 53 52 52 51 49 49 48 47 46 45 44 44 43 42 41 41 41 40 39 38 38 38 37 37 36 36 36 37 37 37 37 37 37 36 35 35 34 33 33 32
53 53 53 54 54 54 54 53 52 50 48 48 47 46 45 44 43 43 42 41 41 41 40 40 39 39 39 38 38 38 38 38 39 39 39 39 37 37 36 35 34 34 34
54 54 54 54 54 55 55 55 55 52 51 49 49 48 48 46 45 45 43 42 41 41 42 41 41 40 40 40 39 39 38 39 39 39 39 38 38 37 36 36 36 36 35
56 56 57 57 56 55 56 56 55 55 54 53 52 51 50 50 48 47 45 44 43 43 43 43 42 41 41 42 41 40 40 40 41 40 40 39 38 38 38 38 38 37 36
55 56 57 58 58 58 57 56 57 57 55 54 54 52 51 50 51 49 48 47 45 44 43 42 42 41 40 41 41 41 42 42 41 41 40 39 39 39 39 39 39 38 37
53 54 56 58 59 58 57 56 56 57 56 55 55 53 53 52 51 50 48 47 46 45 45 43 42 42 42 42 42 42 42 43 42 42 41 41 41 41 40 39 39 39 38
51 52 53 55 57 58 57 56 56 56 56 56 56 55 54 52 51 50 49 48 47 46 46 46 45 44 44 44 43 43 44 45 44 43 43 42 42 42 41 41 40 40 39
47 48 50 51 52 54 55 57 57 55 56 57 56 56 55 54 53 53 51 49 49 48 48 47 46 46 47 47 46 46 47 46 46 46 46 44 44 44 43 42 42 41 40
45 46 47 49 49 50 52 55 57 57 57 57 57 56 56 55 53 52 53 52 52 51 51 49 48 48 49 49 48 48 48 48 48 47 47 46 45 45 44 44 43 43 42
41 43 44 44 45 46 48 51 53 55 55 56 56 57 56 56 56 55 55 55 54 53 52 50 49 50 50 50 49 49 49 49 49 49 49 48 47 46 46 45 45 44 43
38 39 40 42 43 44 45 47 49 51 52 53 54 56 56 55 56 56 57 56 55 54 54 52 52 52 52 52 52 52 51 51 51 51 51 51 50 49 48 47 48 47 45
34 36 38 38 40 41 42 43 45 48 50 52 52 53 55 54 54 55 55 56 57 56 55 53 53 54 54 54 55 54 53 53 53 53 53 53 52 51 50 50 50 49 48
30 32 33 35 37 38 39 41 42 45 48 50 51 51 52 54 54 54 55 56 56 56 55 55 55 56 57 56 56 55 55 55 55 55 55 55 54 54 53 52 51 51 48
23 26 28 30 32 34 36 37 39 42 44 46 48 49 51 52 54 54 54 56 57 56 55 55 57 58 58 58 56 56 57 57 56 56 57 57 56 56 54 53 52 51 49
19 21 23 26 28 31 33 35 36 38 40 42 44 46 49 51 52 54 55 56 56 56 57 57 57 58 58 58 58 58 59 58 58 58 58 58 57 55 54 53 52 51 50
16 18 20 22 24 26 29 31 32 34 36 39 42 45 48 51 52 53 54 55 55 56 57 59 59 58 59 59 60 60 60 60 59 59 58 58 58 56 55 54 53 53 52
15 16 17 19 21 24 27 29 30 32 35 37 39 42 44 46 48 50 52 54 55 56 57 59 59 59 60 61 61 61 60 61 60 59 60 59 59 57 56 56 55 54 53
16 18 18 20 22 23 25 27 29 32 34 36 38 40 42 44 46 48 51 53 55 57 59 58 60 60 60 60 61 61 61 62 61 61 62 60 59 59 58 57 57 56 55
18 19 20 21 23 24 26 28 30 32 34 37 39 42 44 47 49 51 52 53 55 58 59 60 60 61 61 61 61 60 61 61 60 61 62 61 60 60 59 59 58 58 58
20 21 22 24 25 27 29 31 33 34 37 39 42 45 47 49 51 53 54 54 55 57 58 58 60 60 61 61 62 62 61 61 61 60 61 62 61 62 62 61 61 61 60
23 24 25 27 29 31 33 34 36 37 39 41 43 46 48 50 51 52 54 56 57 57 58 58 58 59 60 60 61 62 62 61 61 61 61 62 61 62 62 61 60 61 60
Wind_Direction
256 256 255 256 256 257 258 258 259 260 261 262 261 260 260 261 262 263 264 264 265 267 269 270 271 273 275 277 278 279 281 284 286 289 292 295 297 300 303 305 306 304 305
255 255 254 255 256 257 257 258 258 259 260 261 261 261 261 260 261 263 264 265 266 267 268 270 271 273 275 276 278 280 281 283 286 288 291 293 295 297 301 303 304 302 303
254 255 255 255 255 256 256 257 258 259 260 260 260 261 261 261 261 262 264 264 265 266 268 270 271 272 274 276 278 279 280 281 283 286 288 291 293 296 298 300 300 301 301
255 255 254 254 255 255 255 256 256 257 259 259 260 260 260 261 261 262 263 263 265 266 267 269 270 272 273 275 277 279 280 281 282 284 287 290 291 294 295 297 298 299 299
254 255 253 253 254 254 254 254 255 256 257 258 259 259 260 261 262 262 262 262 263 265 267 269 269 271 273 274 276 277 279 280 281 283 286 289 290 291 293 295 296 297 298
254 254 253 253 254 254 254 253 254 255 256 257 257 258 260 262 262 263 264 264 264 264 265 267 269 270 272 273 275 276 278 279 281 283 285 286 288 289 290 293 295 296 297
254 254 254 253 253 254 253 253 253 255 256 256 256 257 258 260 262 264 264 264 264 263 264 266 268 269 270 271 273 275 277 278 280 281 283 284 286 287 288 291 293 294 296
254 253 254 254 253 253 252 253 253 253 254 255 256 256 257 260 263 264 263 264 265 265 265 266 267 269 271 271 273 274 276 277 279 281 282 283 283 285 287 289 290 292 293
253 253 252 253 253 253 253 253 253 253 253 253 255 257 259 260 261 262 263 265 266 266 266 266 268 269 270 270 271 272 274 277 279 281 281 281 281 283 285 287 288 289 291
253 253 252 252 252 252 253 253 252 252 251 252 254 256 259 259 259 261 262 264 265 266 266 267 267 268 270 271 271 272 275 276 278 279 280 280 280 282 284 285 286 287 288
254 253 252 252 251 251 252 252 252 251 251 252 253 255 258 259 260 260 260 261 263 265 265 266 266 268 269 271 272 274 275 276 277 278 279 280 280 282 284 285 286 286 286
253 253 252 252 251 251 250 250 250 250 250 251 253 253 255 257 259 260 260 260 262 263 263 264 265 267 267 269 271 273 275 275 276 276 277 278 279 281 282 282 284 284 284
252 251 252 252 253 251 250 249 249 251 251 251 252 253 254 256 258 260 261 262 262 262 262 264 266 267 267 269 272 273 274 275 275 275 276 276 278 280 281 281 282 283 283
251 251 252 252 252 252 252 250 249 250 251 251 251 253 254 256 258 259 260 261 262 262 263 265 266 268 269 270 271 272 273 273 274 275 275 275 276 279 280 280 281 281 281
251 252 252 253 254 253 252 251 249 249 251 252 252 253 254 257 257 259 261 262 263 263 264 265 267 269 270 270 270 270 271 272 273 274 275 275 275 277 278 279 279 279 279
252 253 254 254 254 254 254 252 250 249 251 252 253 253 254 256 258 259 261 263 264 265 266 266 267 269 270 270 270 270 270 271 271 273 274 274 274 274 276 277 277 277 277
253 253 254 255 255 255 255 254 252 251 252 253 254 255 254 255 259 260 262 263 264 267 268 268 268 269 269 270 271 270 270 269 271 272 273 273 273 274 275 276 276 275 275
256 257 256 257 256 256 257 257 255 254 253 254 254 256 257 258 260 261 262 264 265 266 268 269 269 268 269 270 271 270 270 270 271 272 272 272 272 273 274 275 274 274 272
262 261 260 259 257 258 258 259 258 256 256 255 256 258 259 260 260 261 262 263 264 266 267 269 269 269 270 271 270 270 271 271 271 272 272 272 272 273 273 273 274 271 270
268 268 267 265 263 262 261 261 262 261 259 260 261 260 261 261 261 262 263 264 265 266 267 268 269 270 269 269 270 270 271 271 271 271 271 272 272 272 273 272 271 269 269
279 278 278 275 270 268 266 266 266 265 264 264 264 263 263 263 264 263 264 264 266 267 267 268 269 269 269 270 269 269 269 270 270 270 270 271 272 271 271 270 269 268 268
293 287 285 283 280 277 273 271 271 270 268 266 266 266 267 267 266 267 267 267 267 268 268 269 270 270 271 271 270 269 269 269 269 269 270 271 272 271 271 270 269 268 267
300 295 293 289 285 284 283 280 276 274 272 270 269 270 270 269 269 270 270 269 269 270 269 270 270 270 271 271 271 270 270 269 269 270 270 270 270 270 269 269 268 267 267
306 302 299 296 292 291 290 287 283 279 276 274 273 272 272 271 271 272 272 271 271 271 270 270 270 271 271 271 271 271 272 271 271 271 270 270 269 269 268 267 266 266 266
312 308 306 303 300 297 295 293 290 287 283 280 278 276 275 274 274 274 273 272 272 272 271 271 272 272 272 273 272 272 272 272 272 271 270 269 269 268 267 266 266 265 265
310 309 307 304 301 299 297 295 294 292 289 287 285 282 279 278 277 277 276 275 274 273 272 271 272 272 273 274 274 273 273 272 272 271 270 270 270 269 268 267 266 264 263
Height
5811 5813 5815 5817 5820 5822 5824 5825 5827 5829 5830 5832 5833 5835 5836 5837 5838 5839 5840 5841 5841 5842 5842 5842 5842 5842 5842 5841 5841 5840 5840 5839 5838 5837 5835 5834 5833 5831 5830 5828 5827 5825 5823
5802 5804 5806 5809 5812 5814 5816 5818 5820 5821 5823 5825 5826 5827 5829 5830 5831 5833 5834 5834 5835 5836 5836 5836 5836 5836 5836 5836 5835 5835 5834 5833 5832 5831 5830 5829 5827 5826 5824 5823 5821 5820 5818
5792 5795 5797 5800 5803 5805 5807 5810 5812 5814 5815 5817 5819 5820 5821 5823 5824 5825 5827 5828 5828 5829 5829 5830 5830 5830 5830 5829 5829 5829 5828 5827 5826 5825 5824 5823 5821 5820 5818 5817 5815 5814 5812
5782 5785 5788 5791 5794 5796 5798 5801 5803 5805 5807 5809 5810 5812 5813 5815 5816 5817 5819 5820 5821 5821 5822 5822 5823 5823 5823 5823 5822 5822 5821 5820 5819 5818 5817 5816 5815 5814 5812 5810 5809 5807 5806
5771 5774 5777 5781 5783 5786 5788 5791 5793 5796 5798 5799 5801 5802 5804 5806 5807 5809 5810 5812 5813 5813 5814 5815 5815 5815 5815 5815 5815 5815 5814 5813 5812 5811 5810 5809 5808 5807 5805 5804 5802 5801 5800
5760 5763 5766 5770 5773 5775 5778 5781 5783 5786 5788 5790 5792 5793 5795 5797 5798 5800 5801 5803 5804 5805 5806 5806 5807 5807 5807 5807 5807 5807 5806 5806 5805 5804 5803 5802 5801 5800 5798 5797 5795 5794 5793
5748 5751 5755 5758 5761 5764 5767 5770 5772 5775 5778 5779 5782 5784 5785 5787 5789 5791 5792 5793 5795 5796 5797 5797 5798 5798 5799 5799 5799 5799 5798 5798 5797 5796 5795 5794 5793 5792 5791 5789 5788 5787 5785
5736 5739 5742 5746 5749 5752 5755 5758 5762 5764 5766 5769 5771 5772 5775 5778 5779 5781 5782 5784 5785 5786 5787 5788 5789 5789 5790 5790 5790 5790 5789 5789 5788 5788 5787 5786 5785 5784 5783 5782 5781 5779 5778
5723 5726 5730 5733 5736 5739 5743 5746 5749 5752 5755 5758 5759 5761 5764 5767 5769 5771 5772 5774 5775 5776 5777 5778 5779 5780 5780 5781 5781 5781 5780 5780 5779 5779 5778 5777 5776 5775 5774 5773 5772 5771 5770
5709 5713 5716 5719 5723 5726 5730 5733 5737 5740 5742 5745 5748 5750 5753 5755 5757 5760 5762 5763 5765 5766 5767 5768 5769 5770 5770 5771 5771 5771 5770 5770 5769 5769 5769 5768 5767 5766 5765 5764 5763 5762 5761
5696 5699 5702 5705 5709 5712 5716 5720 5723 5726 5729 5733 5736 5738 5741 5743 5745 5748 5751 5753 5754 5755 5756 5757 5758 5759 5760 5760 5760 5760 5760 5759 5759 5759 5758 5758 5757 5757 5756 5755 5754 5753 5752
5683 5686 5689 5692 5695 5698 5702 5706 5709 5713 5716 5720 5723 5726 5729 5731 5734 5736 5738 5740 5742 5744 5745 5746 5747 5749 5749 5749 5750 5750 5749 5749 5749 5748 5748 5747 5747 5747 5746 5745 5744 5743 5742
5669 5673 5676 5679 5682 5685 5689 5692 5696 5700 5703 5707 5710 5713 5716 5719 5722 5724 5726 5728 5730 5732 5733 5735 5736 5737 5737 5738 5738 5738 5738 5737 5737 5737 5737 5736 5736 5736 5735 5734 5734 5733 5732
5657 5661 5664 5667 5669 5672 5675 5679 5683 5687 5690 5694 5697 5701 5704 5707 5709 5711 5714 5715 5717 5719 5721 5723 5723 5724 5725 5725 5726 5725 5725 5725 5725 5725 5724 5724 5724 5724 5723 5723 5722 5722 5721
5646 5649 5652 5655 5657 5660 5663 5665 5669 5674 5677 5681 5684 5688 5691 5694 5696 5699 5701 5702 5703 5704 5707 5710 5711 5711 5711 5712 5712 5712 5712 5712 5712 5712 5712 5712 5712 5711 5711 5711 5710 5710 5710
5636 5639 5642 5644 5646 5649 5651 5653 5657 5660 5664 5668 5672 5675 5679 5682 5684 5686 5687 5688 5689 5690 5693 5696 5697 5698 5697 5698 5698 5698 5699 5699 5699 5699 5699 5699 5699 5698 5698 5697 5697 5697 5697
5628 5630 5633 5635 5636 5638 5641 5643 5646 5649 5652 5656 5659 5662 5665 5668 5670 5672 5673 5675 5675 5676 5678 5681 5682 5683 5683 5683 5684 5683 5683 5684 5684 5685 5684 5685 5684 5684 5684 5684 5683 5683 5683
5621 5623 5624 5626 5628 5630 5632 5634 5636 5638 5641 5644 5647 5649 5651 5654 5656 5657 5659 5660 5661 5662 5663 5665 5667 5667 5668 5668 5668 5668 5668 5668 5669 5669 5669 5669 5669 5669 5669 5668 5668 5668 5668
5614 5616 5617 5618 5620 5621 5623 5625 5626 5628 5629 5632 5634 5636 5638 5639 5641 5643 5644 5644 5646 5647 5647 5649 5650 5651 5652 5652 5652 5652 5652 5653 5653 5653 5653 5653 5653 5653 5653 5652 5653 5653 5653
5610 5610 5611 5611 5612 5613 5614 5615 5616 5618 5619 5620 5622 5623 5625 5626 5627 5628 5628 5629 5630 5631 5631 5632 5634 5634 5635 5635 5635 5635 5636 5636 5636 5636 5636 5636 5636 5635 5636 5636 5637 5637 5638
5605 5605 5605 5605 5605 5605 5606 5607 5607 5608 5608 5609 5610 5611 5612 5612 5613 5613 5614 5614 5614 5615 5615 5616 5617 5617 5617 5617 5617 5617 5618 5618 5618 5618 5618 5618 5618 5618 5618 5619 5620 5621 5621
5601 5600 5600 5599 5598 5598 5598 5598 5598 5598 5598 5598 5598 5599 5599 5599 5599 5599 5599 5598 5598 5598 5599 5599 5599 5599 5599 5599 5598 5598 5598 5599 5600 5601 5599 5600 5600 5600 5601 5602 5603 5603 5605
5598 5596 5595 5594 5593 5592 5590 5590 5589 5589 5588 5588 5587 5587 5586 5585 5585 5584 5583 5583 5582 5581 5581 5581 5581 5580 5580 5580 5579 5579 5578 5578 5580 5580 5579 5581 5581 5581 5583 5583 5584 5585 5587
5594 5592 5590 5588 5586 5585 5583 5582 5580 5579 5577 5576 5575 5574 5573 5571 5569 5568 5567 5566 5565 5564 5563 5562 5562 5561 5560 5559 5558 5558 5557 5558 5559 5558 5556 5559 5560 5561 5562 5563 5564 5565 5567
5589 5586 5584 5582 5580 5577 5575 5572 5570 5568 5566 5564 5562 5560 5558 5556 5554 5552 5551 5549 5547 5545 5543 5542 5541 5540 5539 5538 5537 5536 5536 5535 5537 5538 5535 5536 5538 5539 5541 5542 5543 5544 5546
5584 5581 5578 5575 5572 5569 5566 5563 5560 5557 5554 5552 5548 5545 5542 5539 5536 5533 5531 5529 5528 5526 5524 5522 5521 5519 5517 5516 5515 5514 5514 5513 5514 5516 5515 5514 5515 5515 5518 5521 5521 5522 5524